Weather History for Conway, SC

Change the Weather History Date:

Friday, February 22, 2013

  Actual Average Record
Temperature  
Mean Temperature 44 °F -  
Max Temperature 48 °F 63 °F 73 °F (2011)
Min Temperature 39 °F 39 °F 39 °F (2013)
Degree Days  
Heating Degree Days 22    
Moisture  
Dew Point 41 °F    
Average Humidity 90    
Maximum Humidity 100    
Minimum Humidity 57    
Precipitation  
Precipitation 0.21 in - - ()
Sea Level Pressure  
Sea Level Pressure 30.19 in    
Wind  
Wind Speed 5 mph (NE)    
Max Wind Speed 13 mph    
Max Gust Speed 18 mph    
Visibility 6 miles    
Events Rain    
Averages and records for this station are not official NWS values.
T = Trace of Precipitation, MM = Missing Value Source: NWS Daily Summary

Daily Weather History Graph

Daily Weather History Graph

Search for Another Location

Airport:

Trip Planner

Search our weather history database for the weather conditions in past years. The results will help you decide how hot, cold, wet, or windy it might be!

Date:

Astronomy

Feb. 22, 2013 Rise Set
Actual Time 6:53 AM EST 6:07 PM EST
Civil Twilight 6:27 AM EST 6:32 PM EST
Nautical Twilight 5:58 AM EST 7:01 PM EST
Astronomical Twilight 5:29 AM EST 7:30 PM EST
Moon 3:22 PM EST (2/22) 4:31 AM EST (2/22)
Length of Visible Light 12h 04m
Length of Day
11h 14m
Waxing Gibbous, 90% of the Moon is Illuminated
Feb 22
Waxing Gibbous
Feb 25
Full
Mar 4
Last Quarter
Mar 11
New
Mar 19
First Quarter

Hourly Weather History & Observations

Time (EST) Temp. Windchill Dew Point Humidity Pressure Visibility Wind Dir Wind Speed Gust Speed Precip Events Conditions
12:15 AM 44.6 °F - 41.0 °F 87% 30.22 in 7.0 mi Calm Calm - N/A   Clear
12:35 AM 44.6 °F 43.1 °F 42.8 °F 93% 30.20 in 7.0 mi ENE 3.5 mph - N/A   Clear
1:15 AM 42.8 °F 40.1 °F 42.8 °F 100% 30.22 in 5.0 mi NNE 4.6 mph - N/A   Clear
1:35 AM 42.8 °F 40.1 °F 41.0 °F 93% 30.22 in 10.0 mi NNE 4.6 mph - N/A   Clear
1:55 AM 42.8 °F 41.1 °F 39.2 °F 87% 30.23 in 7.0 mi North 3.5 mph - N/A   Clear
2:15 AM 42.8 °F 39.3 °F 37.4 °F 81% 30.22 in 7.0 mi NNE 5.8 mph - N/A   Clear
2:35 AM 41.0 °F 38.0 °F 35.6 °F 81% 30.22 in 7.0 mi NE 4.6 mph - N/A   Clear
2:55 AM 41.0 °F 38.0 °F 35.6 °F 81% 30.22 in 7.0 mi NNE 4.6 mph - N/A   Clear
3:15 AM 42.8 °F 40.1 °F 35.6 °F 76% 30.25 in 5.0 mi North 4.6 mph - N/A   Haze
3:35 AM 42.8 °F 38.6 °F 35.6 °F 76% 30.25 in 7.0 mi NNE 6.9 mph - N/A   Clear
3:55 AM 42.8 °F 38.6 °F 37.4 °F 81% 30.25 in 7.0 mi NNE 6.9 mph - N/A   Clear
4:15 AM 42.8 °F 37.0 °F 35.6 °F 76% 30.25 in 7.0 mi NE 10.4 mph - N/A   Clear
4:35 AM 42.8 °F 37.0 °F 35.6 °F 76% 30.26 in 7.0 mi NNE 10.4 mph - N/A   Scattered Clouds
4:55 AM 42.8 °F 36.2 °F 35.6 °F 76% 30.26 in 7.0 mi NNE 12.7 mph - N/A   Scattered Clouds
5:15 AM 42.8 °F 36.2 °F 33.8 °F 70% 30.27 in 5.0 mi NE 12.7 mph 18.4 mph N/A   Haze
5:35 AM 42.8 °F 37.0 °F 32.0 °F 66% 30.27 in 7.0 mi NE 10.4 mph - N/A   Overcast
5:55 AM 42.8 °F 36.6 °F 30.2 °F 61% 30.27 in 7.0 mi ENE 11.5 mph - N/A   Overcast
6:15 AM 42.8 °F 38.0 °F 30.2 °F 61% 30.27 in 7.0 mi ENE 8.1 mph 17.3 mph N/A   Overcast
6:35 AM 42.8 °F 37.0 °F 30.2 °F 61% 30.26 in 7.0 mi NE 10.4 mph - N/A   Mostly Cloudy
6:55 AM 42.8 °F 37.0 °F 30.2 °F 61% 30.25 in 7.0 mi NE 10.4 mph - N/A   Clear
7:15 AM 42.8 °F 38.0 °F 28.4 °F 57% 30.25 in 7.0 mi ENE 8.1 mph 16.1 mph N/A   Mostly Cloudy
7:35 AM 42.8 °F 39.3 °F 28.4 °F 57% 30.27 in 7.0 mi NE 5.8 mph - N/A   Overcast
7:55 AM 42.8 °F 38.0 °F 30.2 °F 61% 30.27 in 7.0 mi NE 8.1 mph - N/A   Overcast
8:15 AM 42.8 °F 38.6 °F 28.4 °F 57% 30.25 in 5.0 mi ENE 6.9 mph - N/A   Haze
8:35 AM 42.8 °F 41.1 °F 30.2 °F 61% 30.28 in 10.0 mi ENE 3.5 mph - N/A Rain Light Rain
8:55 AM 39.2 °F 35.0 °F 33.8 °F 81% 30.25 in 10.0 mi East 5.8 mph - 0.02 in Rain Rain
9:15 AM 39.2 °F - 35.6 °F 87% 30.24 in 7.0 mi Calm Calm - 0.02 in Rain Light Rain
9:35 AM 39.2 °F 35.0 °F 35.6 °F 87% 30.26 in 7.0 mi NNE 5.8 mph - 0.04 in Rain Rain
9:55 AM 39.2 °F 34.2 °F 39.2 °F 100% 30.26 in 7.0 mi NNE 6.9 mph - 0.08 in Rain Rain
10:15 AM 39.2 °F 35.9 °F 39.2 °F 100% 30.26 in 10.0 mi NE 4.6 mph - 0.02 in Rain Light Rain
10:35 AM 39.2 °F 35.9 °F 39.2 °F 100% 30.23 in 10.0 mi NE 4.6 mph - 0.02 in Rain Rain
10:55 AM 41.0 °F 39.0 °F 41.0 °F 100% 30.25 in 10.0 mi East 3.5 mph - 0.02 in Rain Light Rain
11:15 AM 41.0 °F 38.0 °F 41.0 °F 100% 30.24 in 5.0 mi ENE 4.6 mph - N/A   Overcast
11:35 AM 42.8 °F 38.6 °F 42.8 °F 100% 30.23 in 5.0 mi ENE 6.9 mph - N/A   Overcast
11:55 AM 42.8 °F 38.6 °F 42.8 °F 100% 30.23 in 5.0 mi ENE 6.9 mph - N/A   Overcast
12:15 PM 42.8 °F 38.6 °F 42.8 °F 100% 30.23 in 7.0 mi NE 6.9 mph - N/A Rain Light Rain
12:35 PM 42.8 °F 39.3 °F 42.8 °F 100% 30.21 in 10.0 mi NE 5.8 mph - N/A Rain Rain
12:55 PM 42.8 °F 39.3 °F 42.8 °F 100% 30.20 in 7.0 mi ENE 5.8 mph - N/A   Overcast
1:15 PM 44.6 °F 40.2 °F 44.6 °F 100% 30.19 in 5.0 mi NE 8.1 mph - N/A   Overcast
1:35 PM 44.6 °F 42.2 °F 44.6 °F 100% 30.17 in 5.0 mi NE 4.6 mph - N/A   Overcast
1:55 PM 44.6 °F 41.4 °F 44.6 °F 100% 30.15 in 5.0 mi ENE 5.8 mph - N/A   Overcast
2:15 PM 46.4 °F 42.9 °F 46.4 °F 100% 30.16 in 5.0 mi NE 6.9 mph - N/A   Overcast
2:35 PM 46.4 °F 44.3 °F 46.4 °F 100% 30.14 in 5.0 mi NE 4.6 mph - N/A   Overcast
2:55 PM 46.4 °F 44.3 °F 46.4 °F 100% 30.15 in 5.0 mi ENE 4.6 mph - N/A   Overcast
3:15 PM 46.4 °F 44.3 °F 46.4 °F 100% 30.15 in 7.0 mi ENE 4.6 mph - N/A   Overcast
3:35 PM 46.4 °F 43.5 °F 46.4 °F 100% 30.14 in 7.0 mi NE 5.8 mph - N/A   Overcast
3:55 PM 48.2 °F - 48.2 °F 100% 30.13 in 7.0 mi ENE 5.8 mph - N/A   Overcast
4:15 PM 48.2 °F - 48.2 °F 100% 30.13 in 5.0 mi NE 4.6 mph - N/A   Overcast
4:35 PM 48.2 °F - 48.2 °F 100% 30.13 in 5.0 mi NE 4.6 mph - N/A   Overcast
4:55 PM 46.4 °F 45.2 °F 46.4 °F 100% 30.14 in 4.0 mi North 3.5 mph - N/A   Overcast
5:15 PM 46.4 °F - 46.4 °F 100% 30.14 in 4.0 mi Calm Calm - 0.02 in Rain Heavy Rain
5:35 PM 46.4 °F 43.5 °F 46.4 °F 100% 30.13 in 7.0 mi North 5.8 mph - 0.06 in Rain Light Rain
5:55 PM 46.4 °F 44.3 °F 46.4 °F 100% 30.12 in 10.0 mi NNE 4.6 mph - 0.06 in Rain Rain
6:15 PM 46.4 °F 44.3 °F 46.4 °F 100% 30.13 in 7.0 mi North 4.6 mph - N/A   Light Drizzle
6:35 PM 44.6 °F 43.1 °F 44.6 °F 100% 30.13 in 5.0 mi North 3.5 mph - 0.01 in Rain Light Rain
6:55 PM 44.6 °F - 44.6 °F 100% 30.14 in 3.0 mi Calm Calm - 0.01 in Rain Light Rain
7:15 PM 44.6 °F 42.2 °F 44.6 °F 100% 30.12 in 4.0 mi NNE 4.6 mph - 0.01 in Rain Rain
7:35 PM 44.6 °F 42.2 °F 44.6 °F 100% 30.12 in 5.0 mi North 4.6 mph - 0.02 in Rain Light Rain
7:55 PM 44.6 °F - 44.6 °F 100% 30.13 in 4.0 mi Calm Calm - 0.02 in   Overcast
8:15 PM 44.6 °F 43.1 °F 44.6 °F 100% 30.12 in 3.0 mi North 3.5 mph - N/A   Overcast
8:35 PM 44.6 °F 43.1 °F 44.6 °F 100% 30.12 in 3.0 mi North 3.5 mph - N/A   Overcast
8:55 PM 44.6 °F 43.1 °F 44.6 °F 100% 30.12 in 3.0 mi North 3.5 mph - N/A   Overcast
9:15 PM 44.6 °F 42.2 °F 44.6 °F 100% 30.12 in 3.0 mi NNE 4.6 mph - N/A   Overcast
9:35 PM 44.6 °F - 44.6 °F 100% 30.13 in 4.0 mi Calm Calm - N/A   Overcast
9:55 PM 44.6 °F - 44.6 °F 100% 30.12 in 3.0 mi Calm Calm - N/A   Overcast
10:15 PM 44.6 °F 43.1 °F 44.6 °F 100% 30.11 in 3.0 mi NNE 3.5 mph - N/A   Overcast
10:35 PM 44.6 °F - 44.6 °F 100% 30.11 in 2.5 mi Calm Calm - N/A   Overcast
10:55 PM 44.6 °F - 44.6 °F 100% 30.10 in 2.5 mi Calm Calm - N/A   Overcast
11:15 PM 44.6 °F 42.2 °F 44.6 °F 100% 30.09 in 2.0 mi North 4.6 mph - N/A   Overcast
11:35 PM 42.8 °F 40.1 °F 42.8 °F 100% 30.09 in 2.0 mi North 4.6 mph - N/A   Overcast
11:55 PM 42.8 °F 40.1 °F 42.8 °F 100% 30.08 in 1.5 mi North 4.6 mph - N/A   Overcast